Location: Bow
(51.5261°N, 0.0167°W)
Time: 16:04:39
(UTC+00:00)

Cosmos 2278 Rocket - Pass Details

Date: 18 September 2020
Orbit: 841 x 845 km, 71.0° (Epoch: 30 October)

Event Time Altitude Azimuth Distance (km) Brightness Sun altitude
Exits shadow 23:03:47 36° 347° (NNW) 1,303 3.5 -36.0°
Drops below altitude 10° 23:07:46 10° 22° (NNE) 2,472 5.1 -36.2°
Sets 23:10:21 0° 29° (NNE) 3,410 5.9 -36.3°
